Tracking 31027 objects as of 19-Jul-2025
HD Live streaming from Space Station
objects crossing your sky now

TITAN 3C TRANSTAGE DEB

Track TITAN 3C TRANSTAGE DEB now!


NORAD ID: 40551
Int'l Code: 1965-108DR
Perigee: 648.3 km
Apogee: 30,875.2 km
Inclination: 26.5 °
Period: 546.2 minutes
Semi major axis: 22132 km
RCS: Unknown
Launch date: December 21, 1965
Source: United States (US)
Launch site: AIR FORCE EASTERN TEST RANGE (AFETR)

Note: This is SATELLITE DEBRIS
Your satellite tracking list
IRIDIUM 106
Track 1 satellite(s)




NASA's NSSDC Master Catalog

Two Line Element Set (TLE):
1 40551U 65108DR  25198.11391555 -.00000158  00000-0 -25828-2 0  9993
2 40551  26.4804 197.4054 6828545 170.0756 217.7891  2.63663386158355
Source of the keplerian elements: AFSPC